Skip Page Navigation
NASA JPL Caltech
NASA Logo - Jet Propulsion Laboratory + View the NASA Portal
+ Center for Near-Earth Object Studies
JPL Home Earth Solar System Stars & Galaxies Technology
JPL Solar System Dynamics
BODIES ORBITS EPHEMERIDES TOOLS PHYSICAL DATA DISCOVERY FAQ SITE MAP
JPL Small-Body Database Browser
Search: [ help ]  
175882 (1999 VG191)
Classification: Main-belt Asteroid          SPK-ID: 2175882
Ephemeris | Orbit Diagram | Orbital Elements | Mission Design | Physical Parameters | Discovery Circumstances ]

[ show orbit diagram ]
Orbital Elements at Epoch 2459200.5 (2020-Dec-17.0) TDB
Reference: JPL 11 (heliocentric ecliptic J2000)
 Element Value Uncertainty (1-sigma)   Units 
e .08711542922217401 4.8528e-08  
a 2.396048958146511 1.596e-08 au
q 2.187316124720236 1.167e-07 au
i 8.349598692833879 6.1876e-06 deg
node 61.43632591228567 4.2646e-05 deg
peri 18.92507601790173 5.8585e-05 deg
M 238.2726789740492 4.1435e-05 deg
tp 2459658.565435075270
(2022-Mar-20.06543508)
0.00015738 TDB
period 1354.696342918297
3.71
1.3536e-05
3.706e-08
d
yr
n .2657422099660248 2.6552e-09 deg/d
Q 2.604781791572788 1.7351e-08 au
  Orbit Determination Parameters
   # obs. used (total)      337  
   data-arc span      7120 days (19.49 yr)  
   first obs. used      1999-11-09  
   last obs. used      2019-05-08  
   planetary ephem.      DE441  
   SB-pert. ephem.      SB441-N16  
   condition code      0  
   norm. resid. RMS      .64329  
   source      ORB  
   producer      Otto Matic  
   solution date      2021-Apr-13 21:07:12  

Additional Information
 Earth MOID = 1.20384 au 
 Jupiter MOID = 2.59571 au 
 T_jup = 3.509 
[ show covariance matrix ]

Ephemeris | Orbit Diagram | Orbital Elements | Mission Design | Physical Parameters | Discovery Circumstances ]

Physical Parameter Table
Parameter Symbol Value Units Sigma Reference Notes
absolute magnitude H 16.3   n/a MPO248310  

175882 (1999 VG191)          Discovered 1999-Nov-09 by LINEAR at Socorro
Reference: 20080221/Numbers.arcLast Updated: 2008-02-22

Alternate Designations
 1999 VG191 = 2003 YV129 
Ephemeris | Orbit Diagram | Orbital Elements | Mission Design | Physical Parameters | Discovery Circumstances ]
ABOUT SSD CREDITS/AWARDS PRIVACY/COPYRIGHT GLOSSARY LINKS
FirstGov 2021-Apr-19 07:42 UT
(server date/time)  
NASA Home Page
Site Manager:   Ryan S. Park
Webmaster  Alan B. Chamberlin